Regional Weather Roundup
Issued by NWS

Home | Current Version | Previous Version | Graphics & Text | Print | Product List | Glossary On
Versions: 1 2 3 4 5 6 7 8 9 10 11 12 13 14 15 16 17 18 19 20 21 22 23 24 25 26 27 28 29 30 31 32 33 34 35 36 37 38 39 40 41 42 43 44 45 46 47 48 49 50
000
ASUS43 KOAX 100902
RWRNE

WEATHER ROUNDUP FOR NEBRASKA
NATIONAL WEATHER SERVICE OMAHA NE
300 AM CST SUN DEC 10 2017

NOTES: SATELLITE DATA IS BEING USED TO AUGMENT CLOUD COVER ABOVE
       12000 FEET.
       "FAIR" INDICATES FEW OR NO CLOUDS BELOW 12,000 FEET WITH NO
       SIGNIFICANT WEATHER AND/OR OBSTRUCTIONS TO VISIBILITY.


NEZ001>004-019>022-054>056-101000-
NEBRASKA PANHANDLE

CITY           SKY/WX    TMP DP  RH WIND       PRES   REMARKS
SCOTTSBLUFF    CLOUDY    27  11  51 NW9       30.35S WCI  18
ALLIANCE       CLEAR     25   9  50 W12       30.29R WCI  14
CHADRON        CLEAR     37  12  35 W21       30.29S WCI  26
GORDON         FAIR      37  16  43 W17       30.23R WCI  27
KIMBALL        CLOUDY    35   6  29 NW13      30.36S WCI  26
SIDNEY         CLEAR     35   8  32 W14       30.33S WCI  26
$$

NEZ057>060-069>072-079>082-101000-
SOUTHWEST NEBRASKA

CITY           SKY/WX    TMP DP  RH WIND       PRES   REMARKS
NORTH PLATTE   CLEAR     30  14  51 W8        30.22S WCI  22
IMPERIAL       CLEAR     37  10  32 W14       30.27S WCI  28
LEXINGTON      CLEAR     35  15  45 W13       30.18R WCI  26
MCCOOK         CLEAR     41  14  33 NW21      30.23R
OGALLALA       CLEAR     42  12  29 NW20G29   30.26S
$$

NEZ005>010-023>029-035>040-094-101000-
NORTH CENTRAL NEBRASKA

CITY           SKY/WX    TMP DP  RH WIND       PRES   REMARKS
VALENTINE      CLEAR     40  17  39 W17G25    30.13R WCI  31
AINSWORTH      CLEAR     39  18  43 W13       30.11S WCI  31
BROKEN BOW     CLEAR     44  15  31 NW18      30.13R
O`NEILL        CLEAR     44  19  37 NW17G23   30.05R
ORD            CLEAR     43  17  35 NW17G28   30.08R
THEDFORD       CLEAR     40  16  38 W14       30.17S WCI  32
$$

NEZ041-046>049-061>064-073>077-083>087-101000-
SOUTH CENTRAL NEBRASKA

CITY           SKY/WX    TMP DP  RH WIND       PRES   REMARKS
GRAND ISLAND   CLEAR     37  17  44 W14       30.09S WCI  28
AURORA         CLEAR     39  16  40 W14       30.08S WCI  31
HASTINGS       CLEAR     37  15  40 W15       30.11S WCI  28
HEBRON         CLEAR     34  18  52 CALM      30.10S
HOLDREGE       CLEAR     40  17  39 W13       30.16R WCI  33
KEARNEY        CLEAR     39  14  36 W13       30.13S WCI  31
$$

NEZ011>018-030>034-042>045-101000-
NORTHEAST NEBRASKA

CITY           SKY/WX    TMP DP  RH WIND       PRES   REMARKS
NORFOLK        CLEAR     39  21  48 NW14      30.01R WCI  31
ALBION         CLEAR     41  19  41 NW12      30.05R
BLAIR          CLOUDY    33  22  65 W7        29.98S WCI  27
COLUMBUS       CLEAR     35  21  56 W7        30.04R WCI  29
FREMONT        CLOUDY    26  20  80 W9        30.01R WCI  17
TEKAMAH        CLOUDY    35  22  58 NW9       29.99R WCI  28
WAYNE          CLEAR     39  20  47 NW16      29.99R WCI  30
$$

NEZ050>053-065>068-078-088>093-101000-
SOUTHEAST NEBRASKA

CITY           SKY/WX    TMP DP  RH WIND       PRES   REMARKS
LINCOLN        CLOUDY    37  20  50 W6        30.05S WCI  32
OMAHA EPPLEY   CLOUDY    36  21  54 W12       30.00R WCI  28
BEATRICE       CLOUDY    32  20  62 W9        30.06S WCI  24
FALLS CITY     CLOUDY    35  21  56 W12       30.03F WCI  27
NEBRASKA CITY  CLOUDY    33  23  67 W13       30.01S WCI  23
PLATTSMOUTH    CLOUDY    33  22  66 W8        30.00S WCI  25
$$

NEZ044-045-051>053-067-101000-
OMAHA AREA

CITY           SKY/WX    TMP DP  RH WIND       PRES   REMARKS
OMAHA EPPLEY   CLOUDY    36  21  54 W12       30.00R WCI  28
BLAIR          CLOUDY    33  22  65 W7        29.98S WCI  27
FREMONT        CLOUDY    26  20  80 W9        30.01R WCI  17
MILLARD        CLOUDY    29  21  71 W3        30.01R
OFFUTT AFB     CLOUDY    29  21  71 W7        29.99F WCI  22
PLATTSMOUTH    CLOUDY    33  22  66 W8        30.00S WCI  25
WAHOO          FAIR      37  22  53 W10       30.01R WCI  30
$$




USA.gov is the U.S. government's official web portal to all federal, state and local government web resources and services.